TA2LKM-12 Weather Reports


time (UTC)temp
C
wind
direction
speed
KPH
gust
KPH
rain 1hr
cm
rain 24hr
cm
rain mn
cm
humidity
%
barometer
mb
20260502123002 13 0 0.0 0.0 0.00 0.00 0.00 45 1000.5
20260502113005 13 0 0.0 0.0 0.00 0.00 0.00 45 1001.1
20260502110003 14 0 0.0 0.0 0.00 0.00 0.00 43 1001.0
20260502103004 16 0 0.0 0.0 0.00 0.00 0.00 34 1001.1
20260502070004 15 0 0.0 0.0 0.00 0.00 0.00 41 1002.0
20260502063003 13 0 0.0 0.0 0.00 0.00 0.00 45 1002.2
20260502060003 15 0 0.0 0.0 0.00 0.00 0.00 42 -166.2
20260502053005 12 0 0.0 0.0 0.00 0.00 0.00 53 1002.5
20260502050003 10 0 0.0 0.0 0.00 0.00 0.00 58 1002.6
20260502043002 8 0 0.0 0.0 0.00 0.00 0.00 64 1002.5
20260502040002 8 0 0.0 0.0 0.00 0.00 0.00 67 1002.4
20260502033003 7 0 0.0 0.0 0.00 0.00 0.00 71 1002.3
20260502030002 7 0 0.0 0.0 0.00 0.00 0.00 73 1002.2
20260502023003 7 0 0.0 0.0 0.00 0.00 0.00 72 1002.3
20260502020004 7 0 0.0 0.0 0.00 0.00 0.00 71 1002.6
20260502013003 7 0 0.0 0.0 0.00 0.00 0.00 70 1003.0
20260502010008 7 0 0.0 0.0 0.00 0.00 0.00 67 1003.4
20260502003004 7 0 0.0 0.0 0.00 0.00 0.00 75 1003.5
20260502000002 7 0 0.0 0.0 0.00 0.00 0.00 70 1003.8
20260501233003 7 0 0.0 0.0 0.00 0.00 0.00 71 1159.8
20260501230003 7 0 0.0 0.0 0.00 0.00 0.00 75 1004.2
20260501223003 7 0 0.0 0.0 0.00 0.00 0.00 78 1004.4
20260501220002 7 0 0.0 0.0 0.00 0.00 0.00 78 1004.6
20260501213002 8 0 0.0 0.0 0.00 0.00 0.00 79 1004.6
20260501210004 8 0 0.0 0.0 0.00 0.00 0.00 79 1004.8
20260501203004 7 0 0.0 0.0 0.00 0.00 0.00 80 1004.9
20260501200003 7 0 0.0 0.0 0.00 0.00 0.00 82 1005.0
20260501190005 8 0 0.0 0.0 0.00 0.00 0.00 76 1004.8
20260501183003 8 0 0.0 0.0 0.00 0.00 0.00 82 1004.8
20260501180002 8 0 0.0 0.0 0.00 0.00 0.00 84 1004.6
20260501173003 8 0 0.0 0.0 0.00 0.00 0.00 73 1004.4
20260501170002 8 0 0.0 0.0 0.00 0.00 0.00 74 1004.2
20260501163002 8 0 0.0 0.0 0.00 0.00 0.00 74 -164.4
20260501160004 8 0 0.0 0.0 0.00 0.00 0.00 78 1004.2